Location: Lecco
(45.8566°N, 9.3977°E)
Time: 21:25:53
(UTC+02:00)

Tiangong 2 - Visible Passes

Search period start: 24 June 2019 00:00
Search period end: 04 July 2019 00:00
Orbit: 376 x 388 km, 42.8° (Epoch: 24 June)

Date Brightness Start Highest point End Pass type
(mag) Time Alt. Az. Time Alt. Az. Time Alt. Az.
25 Jun 3.7 04:41:01 10° SSE 04:41:38 10° SSE 04:42:16 10° SE visible
27 Jun 3.1 04:16:12 13° S 04:17:38 16° SSE 04:19:40 10° ESE visible
28 Jun 2.1 04:50:52 10° SW 04:53:43 31° SSE 04:56:35 10° E visible
29 Jun 2.5 03:52:58 21° S 03:53:38 23° SSE 03:56:12 10° ESE visible
30 Jun 3.7 02:55:15 11° ESE 02:55:15 11° ESE 02:55:34 10° ESE visible
30 Jun 1.7 04:27:24 14° SW 04:29:48 39° S 04:32:48 10° E visible
01 Jul 2.0 03:29:41 31° SSE 03:29:41 31° SSE 03:32:30 10° E visible
02 Jul 3.8 02:32:00 11° ESE 02:32:00 11° ESE 02:32:06 10° ESE visible
02 Jul 1.4 04:04:09 21° WSW 04:05:54 45° S 04:08:56 10° E visible
03 Jul 2.1 03:06:30 32° SE 03:06:30 32° SE 03:08:42 10° E visible
03 Jul 1.4 04:39:09 10° W 04:42:10 44° S 04:45:12 10° ESE visible
